Weather History for Marion, IN

Change the Weather History Date:

Friday, June 7, 2013

  Actual Average (KMIE) Record (KMIE)
Temperature  
Mean Temperature 64 °F 69 °F  
Max Temperature 71 °F 79 °F 94 °F (2011)
Min Temperature 56 °F 59 °F 46 °F (1977)
Degree Days  
Heating Degree Days 2 1  
Month to date heating degree days 12  
Since 1 June heating degree days 12  
Since 1 July heating degree days 5771  
Cooling Degree Days 0 5  
Month to date cooling degree days 34  
Year to date cooling degree days 117  
Since 1 June cooling degree days 34  
Growing Degree Days 14 (Base 50)    
Moisture  
Dew Point 52 °F    
Average Humidity 67    
Maximum Humidity 89    
Minimum Humidity 46    
Precipitation  
Precipitation 0.00 in 0.16 in 0.98 in (1986)
Month to date precipitation 1.15  
Year to date precipitation 16.72  
Sea Level Pressure  
Sea Level Pressure 29.88 in    
Wind  
Wind Speed 6 mph (NE)    
Max Wind Speed 12 mph    
Max Gust Speed 10 mph    
Visibility 6 miles    
Events      
T = Trace of Precipitation, MM = Missing Value Source: NWS Daily Summary

Daily Weather History Graph

Daily Weather History Graph

Search for Another Location

Airport:

Trip Planner

Search our weather history database for the weather conditions in past years. The results will help you decide how hot, cold, wet, or windy it might be!

Date:

Astronomy

Jun. 07, 2013 Rise Set
Actual Time 6:12 AM EDT 9:11 PM EDT
Civil Twilight 5:39 AM EDT 9:44 PM EDT
Nautical Twilight 4:57 AM EDT 10:25 PM EDT
Astronomical Twilight 4:09 AM EDT 11:14 PM EDT
Moon 5:34 AM EDT (6/7) 8:24 PM EDT (6/7)
Length of Visible Light 16h 04m
Length of Day
14h 58m
Waning Crescent, 1% of the Moon is Illuminated
Jun 7
Waning Crescent
Jun 8
New
Jun 16
First Quarter
Jun 23
Full
Jun 30
Last Quarter

Hourly Weather History & Observations

Time (EDT) Temp. Dew Point Humidity Pressure Visibility Wind Dir Wind Speed Gust Speed Precip Events Conditions
12:15 AM 62.4 °F 54.1 °F 74% 29.87 in 7.0 mi East 5.8 mph - N/A   Clear
12:35 AM 61.9 °F 54.3 °F 76% 29.88 in 7.0 mi ESE 4.6 mph - N/A   Clear
12:55 AM 61.2 °F 54.5 °F 79% 29.88 in 7.0 mi East 5.8 mph - N/A   Clear
1:15 AM 60.8 °F 54.5 °F 80% 29.88 in 7.0 mi East 5.8 mph - N/A   Clear
1:35 AM 60.3 °F 54.5 °F 81% 29.88 in 5.0 mi NE 4.6 mph - N/A   Haze
1:55 AM 59.4 °F 54.5 °F 84% 29.87 in 7.0 mi East 8.1 mph - N/A   Clear
2:15 AM 59.2 °F 54.0 °F 83% 29.88 in 5.0 mi East 4.6 mph - N/A   Haze
2:35 AM 58.6 °F 53.8 °F 84% 29.87 in 5.0 mi East 3.5 mph - N/A   Clear
2:55 AM 57.7 °F 53.8 °F 87% 29.87 in 4.0 mi NE 4.6 mph - N/A   Scattered Clouds
3:15 AM 57.4 °F 53.8 °F 88% 29.86 in 5.0 mi NE 3.5 mph - N/A   Mostly Cloudy
3:35 AM 57.6 °F 53.6 °F 87% 29.86 in 5.0 mi ENE 4.6 mph - N/A   Scattered Clouds
3:55 AM 57.7 °F 53.6 °F 86% 29.86 in 5.0 mi East 4.6 mph - N/A   Scattered Clouds
4:15 AM 57.7 °F 53.6 °F 86% 29.86 in 5.0 mi ENE 4.6 mph - N/A   Clear
4:35 AM 57.6 °F 53.6 °F 87% 29.85 in 5.0 mi ENE 6.9 mph - N/A   Clear
4:55 AM 57.6 °F 53.6 °F 87% 29.86 in 5.0 mi ENE 4.6 mph - N/A   Scattered Clouds
5:15 AM 57.4 °F 53.6 °F 87% 29.87 in 5.0 mi ENE 4.6 mph - N/A   Overcast
5:35 AM 57.4 °F 53.6 °F 87% 29.87 in 5.0 mi ENE 4.6 mph - N/A   Overcast
5:55 AM 57.2 °F 53.4 °F 87% 29.87 in 4.0 mi East 4.6 mph - N/A   Mostly Cloudy
6:15 AM 57.2 °F 53.6 °F 88% 29.88 in 4.0 mi ENE 3.5 mph - N/A   Scattered Clouds
6:35 AM 56.8 °F 53.6 °F 89% 29.88 in 3.0 mi ENE 4.6 mph - N/A   Mostly Cloudy
6:55 AM 56.8 °F 53.6 °F 89% 29.88 in 3.0 mi East 3.5 mph - N/A   Overcast
7:15 AM 57.0 °F 53.6 °F 88% 29.88 in 3.0 mi ENE 5.8 mph - N/A   Scattered Clouds
7:35 AM 57.2 °F 53.6 °F 88% 29.88 in 3.0 mi ENE 5.8 mph - N/A   Clear
7:55 AM 57.6 °F 53.8 °F 87% 29.88 in 4.0 mi East 3.5 mph - N/A   Clear
8:15 AM 58.3 °F 53.8 °F 85% 29.88 in 5.0 mi NE 6.9 mph - N/A   Scattered Clouds
8:35 AM 58.8 °F 53.2 °F 82% 29.89 in 5.0 mi ENE 8.1 mph - N/A   Haze
8:55 AM 59.4 °F 52.9 °F 79% 29.89 in 5.0 mi ENE 8.1 mph - N/A   Haze
9:15 AM 60.1 °F 52.9 °F 77% 29.89 in 7.0 mi East 10.4 mph - N/A   Scattered Clouds
9:35 AM 61.0 °F 52.7 °F 74% 29.90 in 5.0 mi ENE 10.4 mph - N/A   Haze
9:55 AM 61.5 °F 52.3 °F 72% 29.89 in 7.0 mi ENE 10.4 mph - N/A   Scattered Clouds
10:15 AM 62.1 °F 52.3 °F 70% 29.89 in 5.0 mi East 8.1 mph - N/A   Haze
10:35 AM 63.1 °F 52.3 °F 68% 29.89 in 5.0 mi East 9.2 mph - N/A   Haze
10:55 AM 63.9 °F 52.2 °F 66% 29.89 in 7.0 mi ENE 8.1 mph - N/A   Clear
11:15 AM 64.2 °F 52.2 °F 65% 29.89 in 5.0 mi NE 9.2 mph - N/A   Haze
11:35 AM 65.5 °F 52.2 °F 62% 29.89 in 5.0 mi NE 6.9 mph - N/A   Haze
11:55 AM 66.2 °F 51.8 °F 60% 29.89 in 7.0 mi NE 8.1 mph - N/A   Clear
12:15 PM 67.1 °F 52.0 °F 58% 29.89 in 7.0 mi NE 8.1 mph - N/A   Clear
12:35 PM 67.5 °F 51.8 °F 57% 29.89 in 7.0 mi ENE 10.4 mph - N/A   Clear
12:55 PM 68.0 °F 52.2 °F 57% 29.88 in 7.0 mi ENE 8.1 mph - N/A   Clear
1:15 PM 68.9 °F 52.3 °F 55% 29.88 in 10.0 mi ENE 6.9 mph - N/A   Scattered Clouds
1:35 PM 69.4 °F 52.0 °F 54% 29.88 in 7.0 mi NE 5.8 mph 10.4 mph N/A   Mostly Cloudy
1:55 PM 69.3 °F 52.0 °F 54% 29.88 in 10.0 mi NNE 11.5 mph - N/A   Overcast
2:15 PM 69.4 °F 51.1 °F 52% 29.88 in 7.0 mi NNW 6.9 mph - N/A   Overcast
2:35 PM 70.0 °F 51.3 °F 51% 29.87 in 10.0 mi North 4.6 mph - N/A   Overcast
2:55 PM 70.5 °F 51.1 °F 50% 29.87 in 7.0 mi NNW 5.8 mph - N/A   Mostly Cloudy
3:15 PM 71.1 °F 51.1 °F 49% 29.87 in 7.0 mi North 8.1 mph - N/A   Mostly Cloudy
3:35 PM 70.5 °F 50.7 °F 49% 29.87 in 7.0 mi NNW 4.6 mph - N/A   Overcast
3:55 PM 71.1 °F 50.5 °F 48% 29.86 in 10.0 mi North 5.8 mph - N/A   Mostly Cloudy
4:15 PM 71.4 °F 50.5 °F 48% 29.86 in 7.0 mi North 8.1 mph - N/A   Mostly Cloudy
4:35 PM 71.1 °F 50.4 °F 48% 29.85 in 10.0 mi North 6.9 mph - N/A   Overcast
4:55 PM 71.4 °F 50.5 °F 48% 29.85 in 10.0 mi NW 3.5 mph - N/A   Overcast
5:15 PM 71.6 °F 50.4 °F 47% 29.85 in 10.0 mi North 6.9 mph - N/A   Overcast
5:35 PM 71.6 °F 50.2 °F 47% 29.85 in 10.0 mi North 5.8 mph - N/A   Overcast
5:55 PM 71.6 °F 50.0 °F 46% 29.85 in 7.0 mi NNE 6.9 mph - N/A   Overcast
6:15 PM 71.2 °F 50.2 °F 47% 29.85 in 7.0 mi North 8.1 mph - N/A   Overcast
6:35 PM 71.1 °F 49.8 °F 47% 29.85 in 7.0 mi North 6.9 mph - N/A   Overcast
6:55 PM 71.2 °F 50.0 °F 47% 29.85 in 7.0 mi NNE 8.1 mph - N/A   Overcast
7:15 PM 71.2 °F 50.0 °F 47% 29.85 in 7.0 mi NE 8.1 mph - N/A   Overcast
7:35 PM 71.1 °F 50.4 °F 48% 29.86 in 7.0 mi NNE 6.9 mph - N/A   Overcast
7:55 PM 70.2 °F 50.7 °F 50% 29.87 in 7.0 mi NE 4.6 mph - N/A   Mostly Cloudy
8:15 PM 69.4 °F 51.3 °F 52% 29.88 in 5.0 mi ENE 5.8 mph - N/A   Haze
8:35 PM 68.9 °F 51.1 °F 53% 29.88 in 7.0 mi NE 4.6 mph - N/A   Mostly Cloudy
8:55 PM 68.4 °F 51.1 °F 54% 29.88 in 10.0 mi ENE 5.8 mph - N/A   Mostly Cloudy
9:15 PM 67.3 °F 51.4 °F 57% 29.88 in 7.0 mi ENE 5.8 mph - N/A   Mostly Cloudy
9:35 PM 65.8 °F 52.0 °F 61% 29.89 in 7.0 mi ENE 4.6 mph - N/A   Mostly Cloudy
9:55 PM 64.9 °F 52.5 °F 64% 29.89 in 7.0 mi NE 5.8 mph - N/A   Mostly Cloudy
10:15 PM 64.6 °F 52.7 °F 65% 29.90 in 10.0 mi NE 6.9 mph - N/A   Mostly Cloudy
10:35 PM 64.0 °F 52.2 °F 65% 29.91 in 10.0 mi NE 6.9 mph - N/A   Mostly Cloudy
10:55 PM 63.5 °F 51.6 °F 65% 29.91 in 7.0 mi ENE 10.4 mph - N/A   Mostly Cloudy
11:15 PM 62.8 °F 50.7 °F 65% 29.92 in 7.0 mi ENE 10.4 mph - N/A   Scattered Clouds
11:35 PM 62.1 °F 50.4 °F 65% 29.92 in 7.0 mi ENE 8.1 mph - N/A   Scattered Clouds
11:55 PM 61.2 °F 50.2 °F 67% 29.92 in 7.0 mi East 9.2 mph - N/A   Clear